KE5OYL Weather Reports


Display with metric or nautical units.
time (UTC)temp
F
wind
direction
speed
MPH
gust
MPH
rain 1hr
in
rain 24hr
in
rain mn
in
humidity
%
barometer
mb
20260507010140 60 13 2.0 13.0 0.00 0.08 0.08 80 1015.2
20260507005638 60 46 4.0 7.0 0.00 0.08 0.08 80 1015.1
20260507005133 60 11 7.0 9.0 0.00 0.08 0.08 80 1015.6
20260507004631 60 40 7.0 10.0 0.00 0.08 0.08 80 1015.2
20260507004128 60 39 4.0 8.0 0.00 0.08 0.08 80 1015.2
20260507003624 60 6 6.0 9.0 0.00 0.08 0.08 80 1015.1
20260507003120 60 41 9.0 11.0 0.00 0.08 0.08 79 1015.4
20260507002616 60 40 5.0 10.0 0.00 0.08 0.08 79 1015.2
20260507002112 60 36 2.0 7.0 0.00 0.08 0.08 78 1015.1
20260507001609 60 38 6.0 9.0 0.00 0.08 0.08 78 1015.0
20260507001106 60 32 4.0 7.0 0.00 0.08 0.08 78 1015.0
20260507000602 60 49 5.0 9.0 0.00 0.08 0.08 78 1015.0
20260507000058 60 27 5.0 10.0 0.00 0.08 0.08 77 1014.6
20260506235555 61 44 7.0 9.0 0.00 0.08 0.08 77 1014.8
20260506235050 61 57 3.0 5.0 0.00 0.08 0.08 77 1014.9
20260506234548 61 32 5.0 9.0 0.00 0.08 0.08 76 1014.7
20260506234045 61 29 3.0 9.0 0.00 0.08 0.08 76 1014.7
20260506233542 62 44 8.0 9.0 0.00 0.08 0.08 75 1014.6
20260506233039 61 33 4.0 6.0 0.00 0.08 0.08 75 1014.5
20260506232535 61 354 6.0 13.0 0.00 0.08 0.08 75 1014.7
20260506232031 61 353 4.0 7.0 0.00 0.08 0.08 75 1014.4
20260506231528 61 38 6.0 13.0 0.00 0.08 0.08 74 1014.7
20260506231026 61 14 5.0 7.0 0.00 0.08 0.08 74 1014.2
20260506230522 62 17 1.0 5.0 0.00 0.08 0.08 74 1014.7
20260506230020 61 47 6.0 11.0 0.00 0.08 0.08 74 1014.3
20260506225517 62 32 4.0 8.0 0.00 0.08 0.08 74 1014.5
20260506225013 62 39 4.0 7.0 0.00 0.08 0.08 74 1014.2
20260506224510 62 10 3.0 10.0 0.00 0.08 0.08 74 1014.3
20260506224006 62 35 6.0 10.0 0.00 0.08 0.08 74 1014.1
20260506223502 62 13 4.0 11.0 0.00 0.08 0.08 74 1014.4
20260506222959 62 15 6.0 9.0 0.00 0.08 0.08 74 1014.1
20260506222456 62 19 7.0 9.0 0.00 0.08 0.08 74 1013.9
20260506221952 62 9 3.0 7.0 0.00 0.08 0.08 74 1014.1
20260506221449 62 346 2.0 7.0 0.00 0.08 0.08 76 1014.3
20260506220947 62 7 3.0 6.0 0.00 0.08 0.08 75 1014.3
20260506220443 62 27 1.0 5.0 0.00 0.08 0.08 75 1014.0
20260506215939 61 35 2.0 6.0 0.00 0.08 0.08 76 1013.7
20260506215436 61 6 7.0 11.0 0.00 0.08 0.08 76 1014.1
20260506214931 61 33 7.0 11.0 0.00 0.08 0.08 75 1013.5
20260506214428 61 31 2.0 5.0 0.00 0.08 0.08 75 1013.8
20260506213926 61 13 4.0 11.0 0.00 0.08 0.08 75 1013.8
20260506213424 62 336 4.0 13.0 0.00 0.08 0.08 74 1013.7
20260506212921 62 333 3.0 3.0 0.00 0.08 0.08 74 1013.7
20260506212416 62 354 4.0 8.0 0.00 0.08 0.08 73 1014.0
20260506211912 61 3 2.0 5.0 0.00 0.08 0.08 74 1013.9
20260506211408 61 24 5.0 9.0 0.00 0.08 0.08 74 1013.8
20260506210905 61 359 6.0 7.0 0.00 0.08 0.08 74 1014.4
20260506210402 61 6 1.0 5.0 0.00 0.08 0.08 74 1014.4
20260506205859 61 23 1.0 3.0 0.00 0.08 0.08 74 1014.1
20260506205355 61 347 5.0 8.0 0.00 0.08 0.08 74 1014.1
20260506204851 60 4 3.0 5.0 0.00 0.08 0.08 75 1014.2
20260506204349 60 6 3.0 7.0 0.00 0.08 0.08 75 1014.4
20260506203846 60 15 5.0 7.0 0.00 0.08 0.08 75 1014.5
20260506203344 60 7 3.0 7.0 0.00 0.08 0.08 76 1014.6
20260506202840 60 9 1.0 3.0 0.00 0.08 0.08 75 1014.7
20260506202337 60 0 1.0 3.0 0.00 0.08 0.08 75 1014.4
20260506201834 61 349 2.0 7.0 0.00 0.08 0.08 75 1014.6
20260506201332 60 3 4.0 6.0 0.00 0.08 0.08 76 1014.5
20260506200828 60 348 7.0 9.0 0.00 0.08 0.08 76 1014.9
20260506200324 59 280 4.0 8.0 0.00 0.08 0.08 77 1015.0
20260506195820 59 298 5.0 9.0 0.00 0.08 0.08 78 1015.0
20260506195318 59 355 7.0 11.0 0.00 0.08 0.08 78 1015.1
20260506194815 59 296 5.0 11.0 0.00 0.08 0.08 78 1014.9
20260506194311 60 338 6.0 8.0 0.00 0.08 0.08 77 1014.9
20260506193809 60 339 4.0 7.0 0.00 0.08 0.08 76 1015.0
20260506193305 60 307 4.0 8.0 0.00 0.08 0.08 77 1015.0
20260506192802 59 330 5.0 8.0 0.00 0.08 0.08 78 1015.1
20260506192259 58 353 5.0 7.0 0.00 0.08 0.08 79 1015.1
20260506191756 58 9 3.0 8.0 0.00 0.08 0.08 80 1015.3
20260506191252 58 20 3.0 7.0 0.00 0.08 0.08 80 1015.4
20260506190749 57 16 1.0 6.0 0.00 0.08 0.08 81 1015.5
20260506190245 57 20 7.0 11.0 0.00 0.08 0.08 80 1015.4
20260506185743 57 345 3.0 5.0 0.00 0.08 0.08 81 1015.3
20260506185239 57 21 3.0 9.0 0.00 0.08 0.08 81 1015.2
20260506184731 57 349 3.0 7.0 0.00 0.08 0.08 81 1015.1
20260506184229 57 80 3.0 6.0 0.00 0.08 0.08 82 1015.1
20260506183725 57 15 2.0 6.0 0.00 0.08 0.08 82 1015.4
20260506183221 56 336 3.0 7.0 0.00 0.08 0.08 82 1015.2
20260506182718 56 46 3.0 11.0 0.00 0.08 0.08 82 1015.1
20260506182215 57 58 6.0 8.0 0.00 0.08 0.08 82 1014.9
20260506181713 56 52 8.0 9.0 0.00 0.08 0.08 83 1014.6
20260506181211 56 18 7.0 11.0 0.00 0.08 0.08 83 1014.3
20260506180708 57 15 5.0 14.0 0.00 0.08 0.08 82 1014.0
20260506180203 56 3 7.0 11.0 0.00 0.08 0.08 82 1013.8
20260506175700 56 13 5.0 14.0 0.00 0.08 0.08 83 1013.8
20260506175157 56 12 8.0 21.0 0.00 0.08 0.08 83 1013.7
20260506174655 56 349 6.0 16.0 0.00 0.08 0.08 83 1014.0
20260506174151 56 38 3.0 8.0 0.00 0.08 0.08 84 1014.2
20260506173649 56 79 7.0 14.0 0.00 0.08 0.08 83 1014.9
20260506173146 56 345 9.0 11.0 0.00 0.08 0.08 83 1014.4
20260506172643 56 4 2.0 11.0 0.00 0.08 0.08 84 1014.8
20260506172139 56 9 6.0 8.0 0.00 0.08 0.08 83 1014.8
20260506171631 56 15 2.0 8.0 0.00 0.08 0.08 84 1015.1
20260506171128 56 3 3.0 7.0 0.00 0.08 0.08 84 1015.3
20260506170625 56 60 5.0 7.0 0.00 0.08 0.08 84 1015.3
20260506170117 55 35 5.0 11.0 0.00 0.08 0.08 84 1015.4
20260506165616 55 38 3.0 7.0 0.00 0.08 0.08 85 1015.0
20260506165111 55 61 2.0 10.0 0.00 0.08 0.08 85 1014.8
20260506164609 55 14 3.0 15.0 0.00 0.08 0.08 86 1014.2
20260506164106 55 359 7.0 16.0 0.00 0.08 0.08 86 1014.6
20260506163602 55 358 5.0 11.0 0.00 0.08 0.08 86 1015.1
20260506163057 55 341 5.0 10.0 0.00 0.08 0.08 86 1014.8
20260506162553 55 29 4.0 8.0 0.00 0.08 0.08 86 1014.7
20260506162046 55 346 5.0 10.0 0.00 0.08 0.08 87 1015.2
20260506161543 55 15 3.0 9.0 0.00 0.08 0.08 89 1015.1
20260506161040 54 51 5.0 7.0 0.00 0.08 0.08 89 1015.4
20260506160537 54 24 3.0 6.0 0.00 0.08 0.08 90 1015.3
20260506160034 54 50 7.0 9.0 0.00 0.08 0.08 90 1015.6
20260506155533 54 30 1.0 6.0 0.00 0.08 0.08 90 1015.3
20260506153709 53 351 0.0 2.0 0.05 0.08 0.08 90 1015.8
20260506153207 53 43 1.0 5.0 0.12 0.08 0.08 90 1015.3
20260506152704 54 16 10.0 17.0 0.19 0.07 0.07 89 1013.9
20260506152201 54 355 6.0 9.0 0.35 0.06 0.06 87 1015.5
20260506151701 55 342 5.0 13.0 0.07 0.01 0.01 85 1016.6
20260506151156 55 328 3.0 3.0 0.00 0.00 0.00 84 1016.6
20260506150653 54 2 5.0 11.0 0.00 0.00 0.00 84 1016.5
20260506150150 54 2 4.0 14.0 0.00 0.00 0.00 84 1016.3
20260506145647 55 278 2.0 6.0 0.00 0.00 0.00 84 1016.1
20260506145143 55 34 6.0 8.0 0.00 0.00 0.00 83 1015.6
20260506144642 54 7 5.0 10.0 0.00 0.00 0.00 83 1015.2
20260506144138 55 291 3.0 5.0 0.00 0.00 0.00 81 1015.3
20260506143636 55 7 8.0 15.0 0.00 0.00 0.00 80 1014.9
20260506143133 55 12 5.0 11.0 0.00 0.00 0.00 80 1015.2
20260506142632 55 358 7.0 8.0 0.00 0.00 0.00 79 1015.0
20260506142129 55 305 4.0 8.0 0.00 0.00 0.00 79 1014.8
20260506141626 55 355 1.0 3.0 0.00 0.00 0.00 79 1014.8
20260506141125 55 3 7.0 11.0 0.00 0.00 0.00 79 1014.8
20260506140622 55 348 3.0 8.0 0.00 0.00 0.00 79 1014.6
20260506140119 55 323 3.0 8.0 0.00 0.00 0.00 79 1014.8
20260506135616 55 17 3.0 7.0 0.00 0.00 0.00 79 1014.7
20260506135112 55 9 4.0 8.0 0.00 0.00 0.00 79 1014.2
20260506134609 55 17 7.0 8.0 0.00 0.00 0.00 78 1014.2
20260506134104 55 352 3.0 13.0 0.00 0.00 0.00 79 1014.2
20260506133602 55 8 3.0 7.0 0.00 0.00 0.00 79 1014.2
20260506133059 55 11 2.0 11.0 0.00 0.00 0.00 79 1014.3
20260506132556 55 343 4.0 10.0 0.00 0.00 0.00 80 1014.1
20260506132053 55 19 7.0 13.0 0.00 0.00 0.00 80 1014.1
20260506131550 55 5 4.0 11.0 0.00 0.00 0.00 79 1013.8
20260506131047 55 31 4.0 13.0 0.00 0.00 0.00 79 1013.8
20260506130544 56 3 5.0 9.0 0.00 0.00 0.00 78 1013.7
20260506130041 55 16 5.0 9.0 0.00 0.00 0.00 79 1013.9
20260506125539 55 28 8.0 14.0 0.00 0.00 0.00 79 1013.9
20260506125037 55 20 7.0 13.0 0.00 0.00 0.00 79 1014.0
20260506124534 55 23 10.0 17.0 0.00 0.00 0.00 79 1013.5
20260506124032 55 16 9.0 11.0 0.00 0.00 0.00 78 1013.6
20260506123530 55 359 6.0 15.0 0.00 0.00 0.00 78 1013.4
20260506123028 55 353 8.0 13.0 0.00 0.00 0.00 78 1013.3
20260506122524 56 21 10.0 11.0 0.00 0.00 0.00 77 1013.4
20260506122022 56 19 7.0 13.0 0.00 0.00 0.00 77 1013.4
20260506121520 56 10 6.0 15.0 0.00 0.00 0.00 76 1013.1
20260506121015 56 345 5.0 8.0 0.00 0.00 0.00 76 1012.9
20260506120514 57 18 7.0 10.0 0.00 0.00 0.00 75 1013.4
20260506120011 56 14 4.0 10.0 0.00 0.00 0.00 76 1013.1
20260506115509 57 346 5.0 13.0 0.00 0.00 0.00 76 1013.1
20260506115007 56 28 7.0 10.0 0.00 0.00 0.00 76 1013.2
20260506114504 56 11 5.0 10.0 0.00 0.00 0.00 76 1012.6
20260506114003 57 357 6.0 15.0 0.00 0.00 0.00 76 1012.6
20260506113500 57 28 5.0 14.0 0.00 0.00 0.00 75 1012.7
20260506112956 57 20 8.0 11.0 0.00 0.00 0.00 74 1012.3
20260506112454 57 26 3.0 8.0 0.00 0.00 0.00 74 1012.4
20260506111950 57 18 5.0 11.0 0.00 0.00 0.00 75 1012.5
20260506111449 57 1 7.0 15.0 0.00 0.00 0.00 75 1012.5
20260506110946 58 3 5.0 11.0 0.00 0.00 0.00 74 1012.3
20260506110444 58 46 3.0 7.0 0.00 0.00 0.00 73 1012.1
20260506105940 59 341 9.0 11.0 0.00 0.00 0.00 73 1012.3
20260506105436 59 306 5.0 8.0 0.00 0.00 0.00 73 1012.1
20260506104934 59 355 3.0 7.0 0.00 0.00 0.00 73 1012.1
20260506104432 59 354 4.0 9.0 0.00 0.00 0.00 72 1011.8
20260506103930 59 288 5.0 8.0 0.00 0.00 0.00 73 1011.9
20260506103427 59 293 4.0 9.0 0.00 0.00 0.00 74 1011.4
20260506102924 60 289 9.0 10.0 0.00 0.00 0.00 72 1011.5
20260506102422 59 335 3.0 5.0 0.00 0.00 0.00 72 1011.1
20260506101919 60 314 6.0 7.0 0.00 0.00 0.00 72 1011.1
20260506101414 59 338 6.0 7.0 0.00 0.00 0.00 73 1011.1
20260506100913 60 311 4.0 7.0 0.00 0.00 0.00 73 1010.9
20260506100411 60 24 3.0 5.0 0.00 0.00 0.00 73 1010.8
20260506095908 60 340 3.0 10.0 0.00 0.00 0.00 74 1010.9
20260506095406 60 33 5.0 10.0 0.00 0.00 0.00 74 1010.8
20260506094902 60 354 6.0 10.0 0.00 0.00 0.00 74 1010.8
20260506094401 60 339 5.0 6.0 0.00 0.00 0.00 75 1011.0
20260506093858 59 13 3.0 9.0 0.00 0.00 0.00 76 1010.9
20260506093356 59 23 2.0 5.0 0.00 0.00 0.00 76 1010.7
20260506092853 60 13 4.0 6.0 0.00 0.00 0.00 75 1011.0
20260506092351 60 10 5.0 7.0 0.00 0.00 0.00 75 1010.7
20260506091847 60 339 2.0 6.0 0.00 0.00 0.00 75 1010.8
20260506091346 60 287 3.0 7.0 0.00 0.00 0.00 75 1010.8
20260506090843 60 336 6.0 10.0 0.00 0.00 0.00 75 1010.7
20260506090340 60 346 5.0 10.0 0.00 0.00 0.00 74 1010.7
20260506085837 60 18 3.0 8.0 0.00 0.00 0.00 74 1010.6
20260506085333 60 14 4.0 5.0 0.00 0.00 0.00 75 1010.7
20260506084830 60 336 8.0 10.0 0.00 0.00 0.00 75 1010.5
20260506084327 61 355 5.0 11.0 0.00 0.00 0.00 74 1010.6
20260506083823 61 44 5.0 8.0 0.00 0.00 0.00 74 1010.4
20260506083321 61 19 5.0 6.0 0.00 0.00 0.00 74 1010.5
20260506082818 61 6 3.0 8.0 0.00 0.00 0.00 74 1010.3
20260506082314 61 22 1.0 6.0 0.00 0.00 0.00 74 1010.2
20260506081811 61 24 3.0 6.0 0.00 0.00 0.00 74 1010.2
20260506081309 61 7 1.0 5.0 0.00 0.00 0.00 74 1010.1
20260506080806 61 356 4.0 9.0 0.00 0.00 0.00 74 1009.9
20260506080302 61 36 5.0 7.0 0.00 0.00 0.00 74 1009.9
20260506073246 62 28 5.0 9.0 0.00 0.00 0.00 74 1010.1
20260506072743 62 22 5.0 9.0 0.00 0.00 0.00 75 1010.2
20260506072241 62 347 6.0 8.0 0.00 0.00 0.00 74 1010.3
20260506071739 63 6 1.0 3.0 0.00 0.00 0.00 74 1010.4
20260506071236 63 17 6.0 8.0 0.00 0.00 0.00 74 1010.1
20260506070733 62 330 3.0 9.0 0.00 0.00 0.00 75 1010.2
20260506070230 62 359 4.0 9.0 0.00 0.00 0.00 75 1010.2
20260506062207 63 352 6.0 11.0 0.00 0.00 0.00 75 1010.0
20260506061703 63 45 5.0 17.0 0.00 0.00 0.00 75 1010.0
20260506061201 63 1 4.0 8.0 0.00 0.00 0.00 74 1010.2
20260506060659 64 10 4.0 10.0 0.00 0.00 0.00 74 1009.8
20260506060155 64 7 3.0 7.0 0.00 0.00 0.00 74 1010.2
20260506051127 66 25 6.0 8.0 0.00 0.00 0.00 74 1009.8
20260506050626 66 37 4.0 8.0 0.00 0.00 0.00 74 1009.9
20260506050122 66 31 5.0 11.0 0.00 0.00 0.00 75 1009.8
20260506045116 67 349 8.0 10.0 0.00 0.02 0.02 74 1009.8
20260506044614 68 2 3.0 6.0 0.00 0.02 0.02 73 1009.8
20260506044110 67 355 4.0 6.0 0.00 0.02 0.02 74 1009.7
20260506043607 68 2 3.0 11.0 0.00 0.02 0.02 74 1009.7
20260506043106 68 339 7.0 9.0 0.00 0.02 0.02 74 1009.8
20260506042605 69 328 9.0 11.0 0.00 0.02 0.02 72 1009.5
20260506042102 70 354 3.0 5.0 0.00 0.02 0.02 73 1009.5
20260506041601 70 359 6.0 8.0 0.00 0.02 0.02 72 1009.3
20260506041057 70 14 3.0 7.0 0.00 0.02 0.02 72 1009.2
20260506040555 70 7 6.0 9.0 0.00 0.02 0.02 72 1009.1
20260506040051 71 14 7.0 11.0 0.00 0.02 0.02 72 1009.0
20260506035548 71 342 5.0 8.0 0.00 0.02 0.02 72 1008.8
20260506035044 71 330 8.0 13.0 0.00 0.02 0.02 72 1009.0
20260506034542 72 347 9.0 14.0 0.00 0.02 0.02 72 1009.1
20260506034039 72 356 3.0 6.0 0.00 0.02 0.02 72 1008.8
20260506033536 72 342 5.0 13.0 0.00 0.02 0.02 72 1008.7
20260506033033 72 36 5.0 10.0 0.00 0.02 0.02 72 1008.6
20260506032530 72 357 8.0 9.0 0.00 0.02 0.02 71 1008.7
20260506032027 73 13 5.0 8.0 0.00 0.02 0.02 71 1008.6
20260506031525 73 12 5.0 9.0 0.00 0.02 0.02 71 1008.4
20260506031021 73 338 11.0 14.0 0.00 0.02 0.02 70 1008.3
20260506030520 74 14 6.0 7.0 0.00 0.02 0.02 69 1008.4
20260506030016 74 336 7.0 11.0 0.00 0.02 0.02 68 1008.3
20260506025513 74 350 6.0 11.0 0.00 0.02 0.02 67 1008.1
20260506025009 75 341 9.0 13.0 0.00 0.02 0.02 67 1007.8
20260506024507 75 18 2.0 6.0 0.00 0.02 0.02 67 1008.0
20260506024002 75 315 3.0 8.0 0.00 0.02 0.02 67 1007.7
20260506023459 75 311 6.0 13.0 0.00 0.02 0.02 67 1007.9
20260506022956 75 349 6.0 10.0 0.00 0.02 0.02 67 1007.2
20260506022454 75 344 2.0 9.0 0.00 0.02 0.02 67 1007.2
20260506021951 75 28 5.0 8.0 0.00 0.02 0.02 67 1007.1
20260506021449 75 33 3.0 8.0 0.00 0.02 0.02 67 1006.7
20260506020946 75 25 4.0 10.0 0.00 0.02 0.02 67 1006.9
20260506020443 76 16 2.0 5.0 0.00 0.02 0.02 67 1006.8
20260506015940 76 341 2.0 7.0 0.00 0.02 0.02 67 1006.7
20260506015438 76 289 5.0 8.0 0.00 0.02 0.02 67 1006.5
20260506014934 77 339 4.0 8.0 0.00 0.02 0.02 68 1006.5
20260506014431 77 3 3.0 6.0 0.00 0.02 0.02 68 1006.6
20260506013928 77 330 3.0 5.0 0.00 0.02 0.02 67 1006.4
20260506013426 77 2 1.0 7.0 0.00 0.02 0.02 67 1006.0
20260506012922 77 335 5.0 7.0 0.00 0.02 0.02 67 1006.0
20260506012418 78 319 10.0 14.0 0.00 0.02 0.02 67 1006.2
20260506011916 78 272 3.0 8.0 0.00 0.02 0.02 66 1006.2
20260506011413 79 341 4.0 10.0 0.00 0.02 0.02 66 1006.2
20260506010910 79 343 5.0 8.0 0.00 0.02 0.02 67 1006.0
20260506010408 79 343 3.0 3.0 0.00 0.02 0.02 67 1006.1